| time (UTC) | temp F | wind direction | speed knots | gust knots | rain 1hr in | rain 24hr in | rain mn in | humidity % | barometer mb |
| 20260506190525 | 78 | 100 | 1.7 | 0.0 | 0.00 | 0.00 | 0.00 | 23 | 1009.4 |
| 20260506190001 | 78 | 89 | 1.7 | 0.0 | 0.00 | 0.00 | 0.00 | 23 | 1009.4 |
| 20260506185546 | 79 | 55 | 1.7 | 0.0 | 0.00 | 0.00 | 0.00 | 23 | 1009.5 |
| 20260506185026 | 78 | 360 | 1.7 | 0.0 | 0.00 | 0.00 | 0.00 | 22 | 1009.6 |
| 20260506184504 | 79 | 360 | 1.7 | 0.0 | 0.00 | 0.00 | 0.00 | 23 | 1009.6 |
| 20260506184052 | 77 | 92 | 1.7 | 0.0 | 0.00 | 0.00 | 0.00 | 23 | 1009.7 |
| 20260506183528 | 77 | 85 | 1.7 | 0.0 | 0.00 | 0.00 | 0.00 | 24 | 1009.7 |
| 20260506183009 | 77 | 360 | 1.7 | 0.0 | 0.00 | 0.00 | 0.00 | 23 | 1009.8 |
| 20260506182551 | 77 | 360 | 2.6 | 0.0 | 0.00 | 0.00 | 0.00 | 23 | 1009.8 |
| 20260506182033 | 77 | 87 | 1.7 | 0.0 | 0.00 | 0.00 | 0.00 | 24 | 1009.7 |
| 20260506181509 | 78 | 124 | 1.7 | 0.0 | 0.00 | 0.00 | 0.00 | 23 | 1009.8 |
| 20260506181059 | 76 | 124 | 2.6 | 0.0 | 0.00 | 0.00 | 0.00 | 24 | 1009.8 |
| 20260506180538 | 77 | 81 | 2.6 | 0.0 | 0.00 | 0.00 | 0.00 | 24 | 1009.8 |
| 20260506180014 | 76 | 55 | 2.6 | 0.0 | 0.00 | 0.00 | 0.00 | 24 | 1010.0 |
| 20260506175557 | 76 | 106 | 2.6 | 0.0 | 0.00 | 0.00 | 0.00 | 25 | 1009.8 |
| 20260506175030 | 75 | 98 | 2.6 | 0.0 | 0.00 | 0.00 | 0.00 | 26 | 1009.7 |
| 20260506174514 | 75 | 80 | 2.6 | 0.0 | 0.00 | 0.00 | 0.00 | 25 | 1009.7 |
| 20260506174054 | 75 | 104 | 1.7 | 0.0 | 0.00 | 0.00 | 0.00 | 25 | 1009.7 |
| 20260506173531 | 75 | 128 | 2.6 | 0.0 | 0.00 | 0.00 | 0.00 | 25 | 1009.7 |
| 20260506173008 | 74 | 113 | 3.5 | 0.0 | 0.00 | 0.00 | 0.00 | 25 | 1009.7 |
| 20260506172550 | 74 | 181 | 3.5 | 0.0 | 0.00 | 0.00 | 0.00 | 26 | 1009.9 |
| 20260506172025 | 73 | 113 | 3.5 | 0.0 | 0.00 | 0.00 | 0.00 | 27 | 1009.9 |
| 20260506171506 | 74 | 111 | 2.6 | 0.0 | 0.00 | 0.00 | 0.00 | 26 | 1009.8 |
| 20260506171043 | 73 | 122 | 3.5 | 0.0 | 0.00 | 0.00 | 0.00 | 27 | 1009.8 |
| 20260506170526 | 72 | 105 | 3.5 | 0.0 | 0.00 | 0.00 | 0.00 | 27 | 1009.8 |
| 20260506170001 | 73 | 132 | 2.6 | 0.0 | 0.00 | 0.00 | 0.00 | 27 | 1009.9 |
| 20260506165540 | 73 | 119 | 2.6 | 0.0 | 0.00 | 0.00 | 0.00 | 27 | 1009.7 |
| 20260506165018 | 72 | 142 | 2.6 | 0.0 | 0.00 | 0.00 | 0.00 | 28 | 1009.9 |
| 20260506164600 | 71 | 85 | 2.6 | 0.0 | 0.00 | 0.00 | 0.00 | 28 | 1009.9 |
| 20260506164035 | 70 | 96 | 2.6 | 0.0 | 0.00 | 0.00 | 0.00 | 29 | 1010.0 |
| 20260506163510 | 71 | 101 | 3.5 | 0.0 | 0.00 | 0.00 | 0.00 | 28 | 1010.0 |
| 20260506163112 | 70 | 118 | 3.5 | 0.0 | 0.00 | 0.00 | 0.00 | 30 | 1009.9 |
| 20260506162531 | 70 | 105 | 2.6 | 0.0 | 0.00 | 0.00 | 0.00 | 30 | 1010.0 |
| 20260506162010 | 70 | 62 | 2.6 | 0.0 | 0.00 | 0.00 | 0.00 | 30 | 1010.0 |
| 20260506161551 | 70 | 114 | 2.6 | 0.0 | 0.00 | 0.00 | 0.00 | 30 | 1009.9 |
| 20260506161027 | 70 | 98 | 2.6 | 0.0 | 0.00 | 0.00 | 0.00 | 30 | 1009.9 |
| 20260506160505 | 69 | 95 | 3.5 | 0.0 | 0.00 | 0.00 | 0.00 | 31 | 1010.0 |
| 20260506160043 | 68 | 159 | 3.5 | 0.0 | 0.00 | 0.00 | 0.00 | 32 | 1010.0 |
| 20260506155519 | 68 | 91 | 3.5 | 0.0 | 0.00 | 0.00 | 0.00 | 32 | 1009.6 |
| 20260506155103 | 68 | 102 | 3.5 | 0.0 | 0.00 | 0.00 | 0.00 | 32 | 1009.6 |
| 20260506154541 | 67 | 82 | 3.5 | 0.0 | 0.00 | 0.00 | 0.00 | 33 | 1009.4 |
| 20260506154015 | 67 | 111 | 2.6 | 0.0 | 0.00 | 0.00 | 0.00 | 34 | 1009.6 |
| 20260506153557 | 67 | 92 | 2.6 | 0.0 | 0.00 | 0.00 | 0.00 | 34 | 1009.6 |
| 20260506153040 | 66 | 60 | 2.6 | 0.0 | 0.00 | 0.00 | 0.00 | 35 | 1009.7 |
| 20260506152517 | 66 | 128 | 1.7 | 0.0 | 0.00 | 0.00 | 0.00 | 34 | 1009.6 |
| 20260506152056 | 66 | 49 | 1.7 | 0.0 | 0.00 | 0.00 | 0.00 | 35 | 1009.6 |
| 20260506151540 | 65 | 107 | 2.6 | 0.0 | 0.00 | 0.00 | 0.00 | 35 | 1009.6 |
| 20260506151016 | 65 | 126 | 2.6 | 0.0 | 0.00 | 0.00 | 0.00 | 36 | 1009.5 |
| 20260506150557 | 65 | 103 | 3.5 | 0.0 | 0.00 | 0.00 | 0.00 | 37 | 1009.6 |
| 20260506150033 | 65 | 105 | 2.6 | 0.0 | 0.00 | 0.00 | 0.00 | 37 | 1009.6 |
| 20260506145510 | 64 | 110 | 2.6 | 0.0 | 0.00 | 0.00 | 0.00 | 37 | 1009.4 |
| 20260506145053 | 64 | 128 | 1.7 | 0.0 | 0.00 | 0.00 | 0.00 | 38 | 1009.5 |
| 20260506144529 | 64 | 94 | 1.7 | 0.0 | 0.00 | 0.00 | 0.00 | 38 | 1009.4 |
| 20260506144009 | 64 | 111 | 2.6 | 0.0 | 0.00 | 0.00 | 0.00 | 38 | 1009.2 |
| 20260506143553 | 63 | 97 | 1.7 | 0.0 | 0.00 | 0.00 | 0.00 | 38 | 1009.3 |
| 20260506143031 | 63 | 105 | 1.7 | 0.0 | 0.00 | 0.00 | 0.00 | 39 | 1009.3 |
| 20260506142506 | 62 | 86 | 0.9 | 0.0 | 0.00 | 0.00 | 0.00 | 38 | 1009.3 |
| 20260506142051 | 62 | 69 | 0.9 | 0.0 | 0.00 | 0.00 | 0.00 | 38 | 1009.2 |
| 20260506141527 | 61 | 318 | 0.0 | 0.0 | 0.00 | 0.00 | 0.00 | 38 | 1009.2 |
| 20260506141007 | 60 | 24 | 0.0 | 0.0 | 0.00 | 0.00 | 0.00 | 38 | 1009.3 |
| 20260506140549 | 60 | 360 | 0.0 | 0.0 | 0.00 | 0.00 | 0.00 | 39 | 1009.4 |
| 20260506140033 | 59 | 360 | 0.0 | 0.0 | 0.00 | 0.00 | 0.00 | 38 | 1009.3 |
| 20260506135507 | 58 | 360 | 0.0 | 0.0 | 0.00 | 0.00 | 0.00 | 41 | 1009.1 |
| 20260506135050 | 57 | 360 | 0.0 | 0.0 | 0.00 | 0.00 | 0.00 | 40 | 1009.1 |
| 20260506134528 | 56 | 360 | 0.0 | 0.0 | 0.00 | 0.00 | 0.00 | 38 | 1009.1 |
| 20260506134007 | 56 | 360 | 0.0 | 0.0 | 0.00 | 0.00 | 0.00 | 39 | 1009.0 |
| 20260506133543 | 56 | 360 | 0.0 | 0.0 | 0.00 | 0.00 | 0.00 | 38 | 1008.9 |
| 20260506133022 | 56 | 360 | 0.0 | 0.0 | 0.00 | 0.00 | 0.00 | 39 | 1008.8 |
| 20260506132503 | 56 | 360 | 0.9 | 0.0 | 0.00 | 0.00 | 0.00 | 40 | 1008.8 |
| 20260506132048 | 55 | 360 | 0.9 | 0.0 | 0.00 | 0.00 | 0.00 | 40 | 1008.8 |
| 20260506131529 | 54 | 360 | 0.9 | 0.0 | 0.00 | 0.00 | 0.00 | 39 | 1008.9 |
| 20260506131105 | 54 | 360 | 0.0 | 0.0 | 0.00 | 0.00 | 0.00 | 38 | 1008.6 |
| 20260506130548 | 54 | 360 | 0.9 | 0.0 | 0.00 | 0.00 | 0.00 | 39 | 1008.5 |
| 20260506130021 | 54 | 360 | 0.9 | 0.0 | 0.00 | 0.00 | 0.00 | 39 | 1008.6 |
| 20260506125501 | 53 | 360 | 0.9 | 0.0 | 0.00 | 0.00 | 0.00 | 39 | 1008.4 |
| 20260506125042 | 53 | 360 | 0.9 | 0.0 | 0.00 | 0.00 | 0.00 | 39 | 1008.4 |
| 20260506124519 | 53 | 360 | 0.9 | 0.0 | 0.00 | 0.00 | 0.00 | 39 | 1008.3 |
| 20260506124101 | 53 | 360 | 0.9 | 0.0 | 0.00 | 0.00 | 0.00 | 38 | 1008.3 |
| 20260506123545 | 53 | 360 | 0.9 | 0.0 | 0.00 | 0.00 | 0.00 | 38 | 1008.3 |
| 20260506123022 | 54 | 360 | 0.0 | 0.0 | 0.00 | 0.00 | 0.00 | 38 | 1008.0 |
| 20260506122503 | 55 | 360 | 0.9 | 0.0 | 0.00 | 0.00 | 0.00 | 38 | 1007.9 |
| 20260506122048 | 55 | 360 | 0.9 | 0.0 | 0.00 | 0.00 | 0.00 | 39 | 1007.9 |
| 20260506121529 | 55 | 360 | 0.9 | 0.0 | 0.00 | 0.00 | 0.00 | 37 | 1007.9 |
| 20260506121014 | 55 | 360 | 0.9 | 0.0 | 0.00 | 0.00 | 0.00 | 39 | 1007.9 |
| 20260506120555 | 55 | 277 | 0.9 | 0.0 | 0.00 | 0.00 | 0.00 | 37 | 1007.8 |
| 20260506120036 | 56 | 273 | 0.0 | 0.0 | 0.00 | 0.00 | 0.00 | 37 | 1007.6 |
| 20260506115514 | 57 | 53 | 0.0 | 0.0 | 0.00 | 0.00 | 0.00 | 40 | 1007.7 |
| 20260506115100 | 57 | 350 | 0.0 | 0.0 | 0.00 | 0.00 | 0.00 | 39 | 1007.7 |
| 20260506114545 | 57 | 360 | 0.0 | 0.0 | 0.00 | 0.00 | 0.00 | 39 | 1007.6 |
| 20260506114026 | 57 | 360 | 0.0 | 0.0 | 0.00 | 0.00 | 0.00 | 40 | 1007.8 |
| 20260506113502 | 57 | 360 | 0.9 | 0.0 | 0.00 | 0.00 | 0.00 | 38 | 1007.8 |
| 20260506113045 | 57 | 360 | 0.9 | 0.0 | 0.00 | 0.00 | 0.00 | 39 | 1007.7 |
| 20260506112528 | 56 | 360 | 0.0 | 0.0 | 0.00 | 0.00 | 0.00 | 39 | 1007.6 |
| 20260506112004 | 57 | 67 | 0.0 | 0.0 | 0.00 | 0.00 | 0.00 | 37 | 1007.4 |
| 20260506111551 | 58 | 66 | 0.0 | 0.0 | 0.00 | 0.00 | 0.00 | 37 | 1007.4 |
| 20260506111031 | 58 | 67 | 0.9 | 0.0 | 0.00 | 0.00 | 0.00 | 37 | 1007.3 |
| 20260506110510 | 58 | 41 | 0.9 | 0.0 | 0.00 | 0.00 | 0.00 | 37 | 1007.4 |
| 20260506110058 | 57 | 286 | 0.9 | 0.0 | 0.00 | 0.00 | 0.00 | 36 | 1007.4 |
| 20260506105529 | 57 | 267 | 0.9 | 0.0 | 0.00 | 0.00 | 0.00 | 36 | 1007.3 |
| 20260506105011 | 58 | 286 | 0.9 | 0.0 | 0.00 | 0.00 | 0.00 | 35 | 1007.3 |
| 20260506104552 | 58 | 286 | 0.0 | 0.0 | 0.00 | 0.00 | 0.00 | 35 | 1007.1 |
| 20260506104030 | 59 | 360 | 0.0 | 0.0 | 0.00 | 0.00 | 0.00 | 35 | 1007.0 |
| 20260506103511 | 59 | 360 | 0.0 | 0.0 | 0.00 | 0.00 | 0.00 | 34 | 1007.0 |
| 20260506103105 | 59 | 94 | 0.0 | 0.0 | 0.00 | 0.00 | 0.00 | 34 | 1006.9 |
| 20260506102536 | 59 | 360 | 0.0 | 0.0 | 0.00 | 0.00 | 0.00 | 34 | 1006.9 |
| 20260506102014 | 60 | 360 | 0.0 | 0.0 | 0.00 | 0.00 | 0.00 | 34 | 1006.8 |
| 20260506101618 | 59 | 97 | 0.0 | 0.0 | 0.00 | 0.00 | 0.00 | 34 | 1006.7 |
| 20260506101031 | 60 | 96 | 0.0 | 0.0 | 0.00 | 0.00 | 0.00 | 34 | 1006.6 |
| 20260506100513 | 60 | 75 | 0.0 | 0.0 | 0.00 | 0.00 | 0.00 | 33 | 1006.4 |
| 20260506100100 | 60 | 74 | 0.0 | 0.0 | 0.00 | 0.00 | 0.00 | 34 | 1006.4 |
| 20260506095537 | 59 | 303 | 0.0 | 0.0 | 0.00 | 0.00 | 0.00 | 34 | 1006.2 |
| 20260506095015 | 59 | 304 | 0.0 | 0.0 | 0.00 | 0.00 | 0.00 | 33 | 1006.2 |
| 20260506094605 | 60 | 304 | 0.0 | 0.0 | 0.00 | 0.00 | 0.00 | 31 | 1006.1 |
| 20260506094041 | 60 | 360 | 0.0 | 0.0 | 0.00 | 0.00 | 0.00 | 33 | 1006.0 |
| 20260506093525 | 60 | 324 | 0.0 | 0.0 | 0.00 | 0.00 | 0.00 | 33 | 1005.9 |
| 20260506093004 | 61 | 324 | 0.0 | 0.0 | 0.00 | 0.00 | 0.00 | 33 | 1005.9 |
| 20260506092550 | 61 | 324 | 0.0 | 0.0 | 0.00 | 0.00 | 0.00 | 32 | 1005.7 |
| 20260506092028 | 62 | 324 | 0.0 | 0.0 | 0.00 | 0.00 | 0.00 | 31 | 1005.7 |
| 20260506091510 | 63 | 324 | 0.0 | 0.0 | 0.00 | 0.00 | 0.00 | 30 | 1005.7 |
| 20260506091059 | 62 | 324 | 0.0 | 0.0 | 0.00 | 0.00 | 0.00 | 31 | 1005.7 |
| 20260506090541 | 61 | 277 | 0.0 | 0.0 | 0.00 | 0.00 | 0.00 | 32 | 1005.7 |
| 20260506090023 | 62 | 276 | 0.0 | 0.0 | 0.00 | 0.00 | 0.00 | 32 | 1005.7 |
| 20260506085603 | 61 | 301 | 0.0 | 0.0 | 0.00 | 0.00 | 0.00 | 32 | 1006.1 |
| 20260506085044 | 61 | 301 | 0.9 | 0.0 | 0.00 | 0.00 | 0.00 | 33 | 1006.2 |
| 20260506084535 | 61 | 301 | 0.0 | 0.0 | 0.00 | 0.00 | 0.00 | 32 | 1006.2 |
| 20260506084012 | 62 | 283 | 0.0 | 0.0 | 0.00 | 0.00 | 0.00 | 31 | 1006.2 |
| 20260506083558 | 62 | 283 | 0.0 | 0.0 | 0.00 | 0.00 | 0.00 | 32 | 1006.1 |
| 20260506083040 | 62 | 282 | 0.0 | 0.0 | 0.00 | 0.00 | 0.00 | 31 | 1006.1 |
| 20260506082525 | 63 | 109 | 0.0 | 0.0 | 0.00 | 0.00 | 0.00 | 31 | 1006.0 |
| 20260506082007 | 62 | 94 | 0.0 | 0.0 | 0.00 | 0.00 | 0.00 | 32 | 1006.0 |
| 20260506081557 | 62 | 273 | 0.9 | 0.0 | 0.00 | 0.00 | 0.00 | 32 | 1006.2 |
| 20260506081035 | 63 | 274 | 0.9 | 0.0 | 0.00 | 0.00 | 0.00 | 31 | 1005.9 |
| 20260506080514 | 63 | 261 | 0.9 | 0.0 | 0.00 | 0.00 | 0.00 | 30 | 1005.9 |
| 20260506073006 | 62 | 32 | 0.0 | 0.0 | 0.00 | 0.00 | 0.00 | 30 | 1006.2 |
| 20260506072548 | 62 | 360 | 0.0 | 0.0 | 0.00 | 0.00 | 0.00 | 31 | 1006.2 |
| 20260506072023 | 61 | 31 | 0.9 | 0.0 | 0.00 | 0.00 | 0.00 | 30 | 1006.2 |
| 20260506071504 | 61 | 49 | 0.9 | 0.0 | 0.00 | 0.00 | 0.00 | 31 | 1006.2 |
| 20260506071045 | 61 | 78 | 0.9 | 0.0 | 0.00 | 0.00 | 0.00 | 32 | 1006.3 |
| 20260506070528 | 61 | 360 | 0.0 | 0.0 | 0.00 | 0.00 | 0.00 | 32 | 1006.4 |
| 20260506062028 | 62 | 92 | 0.0 | 0.0 | 0.00 | 0.00 | 0.00 | 30 | 1005.7 |
| 20260506061506 | 62 | 360 | 0.0 | 0.0 | 0.00 | 0.00 | 0.00 | 30 | 1005.6 |
| 20260506061052 | 64 | 360 | 0.0 | 0.0 | 0.00 | 0.00 | 0.00 | 30 | 1005.3 |
| 20260506060537 | 64 | 360 | 0.9 | 0.0 | 0.00 | 0.00 | 0.00 | 30 | 1005.2 |
| 20260506051030 | 64 | 360 | 0.9 | 0.0 | 0.00 | 0.00 | 0.00 | 30 | 1004.9 |
| 20260506050512 | 64 | 329 | 0.9 | 0.0 | 0.00 | 0.00 | 0.00 | 30 | 1004.9 |
| 20260506050116 | 64 | 360 | 0.9 | 0.0 | 0.00 | 0.00 | 0.00 | 30 | 1004.8 |
| 20260506045016 | 66 | 360 | 0.0 | 0.0 | 0.00 | 0.00 | 0.00 | 29 | 1004.6 |
| 20260506044601 | 67 | 246 | 0.0 | 0.0 | 0.00 | 0.00 | 0.00 | 29 | 1004.4 |
| 20260506044046 | 68 | 246 | 0.0 | 0.0 | 0.00 | 0.00 | 0.00 | 30 | 1004.3 |
| 20260506043531 | 68 | 246 | 0.0 | 0.0 | 0.00 | 0.00 | 0.00 | 29 | 1004.3 |
| 20260506043016 | 69 | 246 | 0.0 | 0.0 | 0.00 | 0.00 | 0.00 | 29 | 1004.3 |
| 20260506042559 | 69 | 360 | 0.0 | 0.0 | 0.00 | 0.00 | 0.00 | 29 | 1004.3 |
| 20260506042048 | 69 | 360 | 0.0 | 0.0 | 0.00 | 0.00 | 0.00 | 28 | 1004.1 |
| 20260506041535 | 69 | 360 | 0.0 | 0.0 | 0.00 | 0.00 | 0.00 | 28 | 1004.1 |
| 20260506041002 | 69 | 360 | 0.0 | 0.0 | 0.00 | 0.00 | 0.00 | 28 | 1004.0 |
| 20260506040547 | 70 | 360 | 0.0 | 0.0 | 0.00 | 0.00 | 0.00 | 28 | 1003.9 |
| 20260506040035 | 70 | 360 | 0.0 | 0.0 | 0.00 | 0.00 | 0.00 | 28 | 1003.8 |
| 20260506035520 | 70 | 360 | 0.0 | 0.0 | 0.00 | 0.00 | 0.00 | 27 | 1004.0 |
| 20260506035105 | 70 | 360 | 0.0 | 0.0 | 0.00 | 0.00 | 0.00 | 27 | 1003.9 |
| 20260506034550 | 71 | 360 | 0.0 | 0.0 | 0.00 | 0.00 | 0.00 | 26 | 1003.8 |
| 20260506034031 | 71 | 360 | 0.0 | 0.0 | 0.00 | 0.00 | 0.00 | 25 | 1003.7 |
| 20260506033506 | 71 | 360 | 0.9 | 0.0 | 0.00 | 0.00 | 0.00 | 25 | 1003.7 |
| 20260506033053 | 71 | 360 | 0.9 | 0.0 | 0.00 | 0.00 | 0.00 | 25 | 1003.4 |
| 20260506032538 | 71 | 360 | 0.0 | 0.0 | 0.00 | 0.00 | 0.00 | 24 | 1003.4 |
| 20260506032016 | 71 | 360 | 0.0 | 0.0 | 0.00 | 0.00 | 0.00 | 24 | 1003.2 |
| 20260506031501 | 71 | 360 | 0.0 | 0.0 | 0.00 | 0.00 | 0.00 | 23 | 1003.1 |
| 20260506031048 | 72 | 76 | 0.0 | 0.0 | 0.00 | 0.00 | 0.00 | 23 | 1003.1 |
| 20260506030532 | 72 | 77 | 0.0 | 0.0 | 0.00 | 0.00 | 0.00 | 23 | 1003.0 |
| 20260506030015 | 72 | 360 | 0.0 | 0.0 | 0.00 | 0.00 | 0.00 | 23 | 1002.9 |
| 20260506025557 | 72 | 360 | 0.0 | 0.0 | 0.00 | 0.00 | 0.00 | 22 | 1003.0 |
| 20260506025036 | 72 | 360 | 0.0 | 0.0 | 0.00 | 0.00 | 0.00 | 22 | 1002.9 |
| 20260506024515 | 72 | 193 | 0.0 | 0.0 | 0.00 | 0.00 | 0.00 | 22 | 1002.8 |
| 20260506024106 | 72 | 128 | 0.0 | 0.0 | 0.00 | 0.00 | 0.00 | 21 | 1002.7 |
| 20260506023546 | 73 | 360 | 0.0 | 0.0 | 0.00 | 0.00 | 0.00 | 21 | 1002.8 |
| 20260506023028 | 73 | 360 | 0.0 | 0.0 | 0.00 | 0.00 | 0.00 | 20 | 1002.5 |
| 20260506022510 | 73 | 360 | 0.0 | 0.0 | 0.00 | 0.00 | 0.00 | 20 | 1002.5 |
| 20260506022103 | 74 | 360 | 0.0 | 0.0 | 0.00 | 0.00 | 0.00 | 20 | 1002.4 |
| 20260506021544 | 74 | 360 | 0.9 | 0.0 | 0.00 | 0.00 | 0.00 | 20 | 1002.4 |
| 20260506021024 | 74 | 360 | 0.9 | 0.0 | 0.00 | 0.00 | 0.00 | 19 | 1002.3 |
| 20260506020503 | 74 | 360 | 0.9 | 0.0 | 0.00 | 0.00 | 0.00 | 19 | 1002.2 |
| 20260506020055 | 74 | 360 | 0.9 | 0.0 | 0.00 | 0.00 | 0.00 | 19 | 1002.2 |
| 20260506015532 | 75 | 360 | 0.9 | 0.0 | 0.00 | 0.00 | 0.00 | 19 | 1002.3 |
| 20260506015015 | 74 | 360 | 0.9 | 0.0 | 0.00 | 0.00 | 0.00 | 19 | 1002.3 |
| 20260506014502 | 75 | 360 | 0.9 | 0.0 | 0.00 | 0.00 | 0.00 | 18 | 1002.3 |
| 20260506014051 | 75 | 360 | 0.9 | 0.0 | 0.00 | 0.00 | 0.00 | 19 | 1002.2 |
| 20260506013529 | 75 | 360 | 0.9 | 0.0 | 0.00 | 0.00 | 0.00 | 19 | 1002.2 |
| 20260506013021 | 75 | 360 | 0.9 | 0.0 | 0.00 | 0.00 | 0.00 | 19 | 1002.2 |
| 20260506012554 | 75 | 360 | 0.9 | 0.0 | 0.00 | 0.00 | 0.00 | 19 | 1002.3 |
| 20260506012037 | 75 | 360 | 0.9 | 0.0 | 0.00 | 0.00 | 0.00 | 19 | 1002.2 |
| 20260506011523 | 75 | 360 | 0.9 | 0.0 | 0.00 | 0.00 | 0.00 | 19 | 1002.2 |
| 20260506011100 | 75 | 360 | 0.9 | 0.0 | 0.00 | 0.00 | 0.00 | 20 | 1002.2 |
| 20260506010539 | 75 | 360 | 0.9 | 0.0 | 0.00 | 0.00 | 0.00 | 19 | 1002.2 |
| 20260506010021 | 76 | 360 | 0.9 | 0.0 | 0.00 | 0.00 | 0.00 | 19 | 1002.0 |
| 20260506005604 | 76 | 360 | 0.9 | 0.0 | 0.00 | 0.00 | 0.00 | 18 | 1002.2 |
| 20260506005046 | 77 | 360 | 0.9 | 0.0 | 0.00 | 0.00 | 0.00 | 18 | 1002.2 |
| 20260506004523 | 76 | 360 | 0.9 | 0.0 | 0.00 | 0.00 | 0.00 | 19 | 1002.2 |
| 20260506004002 | 75 | 360 | 0.9 | 0.0 | 0.00 | 0.00 | 0.00 | 20 | 1002.3 |
| 20260506003545 | 75 | 360 | 0.9 | 0.0 | 0.00 | 0.00 | 0.00 | 19 | 1002.3 |
| 20260506003026 | 76 | 360 | 0.9 | 0.0 | 0.00 | 0.00 | 0.00 | 19 | 1002.3 |
| 20260506002501 | 74 | 360 | 1.7 | 0.0 | 0.00 | 0.00 | 0.00 | 20 | 1002.4 |
| 20260506002045 | 74 | 360 | 1.7 | 0.0 | 0.00 | 0.00 | 0.00 | 19 | 1002.2 |
| 20260506001524 | 74 | 360 | 1.7 | 0.0 | 0.00 | 0.00 | 0.00 | 19 | 1002.2 |
| 20260506001008 | 76 | 360 | 1.7 | 0.0 | 0.00 | 0.00 | 0.00 | 18 | 1002.2 |
| 20260506000556 | 75 | 360 | 1.7 | 0.0 | 0.00 | 0.00 | 0.00 | 20 | 1002.2 |
| 20260506000031 | 74 | 360 | 1.7 | 0.0 | 0.00 | 0.00 | 0.00 | 19 | 1002.3 |
| 20260505235511 | 74 | 360 | 1.7 | 0.0 | 0.00 | 0.00 | 0.00 | 19 | 1002.2 |
| 20260505235100 | 74 | 360 | 1.7 | 0.0 | 0.00 | 0.00 | 0.00 | 20 | 1002.2 |
| 20260505234539 | 74 | 360 | 1.7 | 0.0 | 0.00 | 0.00 | 0.00 | 19 | 1002.2 |
| 20260505234019 | 75 | 360 | 0.9 | 0.0 | 0.00 | 0.00 | 0.00 | 19 | 1002.2 |
| 20260505233600 | 76 | 360 | 1.7 | 0.0 | 0.00 | 0.00 | 0.00 | 19 | 1002.2 |
| 20260505233047 | 75 | 360 | 1.7 | 0.0 | 0.00 | 0.00 | 0.00 | 19 | 1002.3 |
| 20260505232525 | 76 | 360 | 0.9 | 0.0 | 0.00 | 0.00 | 0.00 | 18 | 1002.2 |
| 20260505232007 | 77 | 360 | 0.9 | 0.0 | 0.00 | 0.00 | 0.00 | 17 | 1002.1 |
| 20260505231554 | 77 | 360 | 0.9 | 0.0 | 0.00 | 0.00 | 0.00 | 18 | 1002.0 |
| 20260505231031 | 76 | 360 | 1.7 | 0.0 | 0.00 | 0.00 | 0.00 | 19 | 1002.1 |
| 20260505230514 | 76 | 360 | 2.6 | 0.0 | 0.00 | 0.00 | 0.00 | 18 | 1002.2 |
| 20260505230119 | 75 | 360 | 1.7 | 0.0 | 0.00 | 0.00 | 0.00 | 19 | 1002.5 |
| 20260505225533 | 74 | 360 | 1.7 | 0.0 | 0.00 | 0.00 | 0.00 | 19 | 1002.5 |
| 20260505225012 | 76 | 360 | 1.7 | 0.0 | 0.00 | 0.00 | 0.00 | 19 | 1002.6 |
| 20260505224558 | 75 | 360 | 2.6 | 0.0 | 0.00 | 0.00 | 0.00 | 20 | 1002.7 |
| 20260505224036 | 73 | 360 | 3.5 | 0.0 | 0.00 | 0.00 | 0.00 | 21 | 1002.8 |
| 20260505223515 | 72 | 360 | 4.3 | 0.0 | 0.00 | 0.00 | 0.00 | 21 | 1003.0 |
| 20260505223058 | 73 | 360 | 3.5 | 0.0 | 0.00 | 0.00 | 0.00 | 20 | 1002.9 |
| 20260505222540 | 73 | 360 | 1.7 | 0.0 | 0.00 | 0.00 | 0.00 | 20 | 1002.9 |
| 20260505222024 | 74 | 360 | 1.7 | 0.0 | 0.00 | 0.00 | 0.00 | 20 | 1003.0 |
| 20260505221503 | 73 | 360 | 1.7 | 0.0 | 0.00 | 0.00 | 0.00 | 20 | 1003.0 |
| 20260505221054 | 75 | 360 | 1.7 | 0.0 | 0.00 | 0.00 | 0.00 | 19 | 1003.0 |
| 20260505220534 | 77 | 360 | 0.9 | 0.0 | 0.00 | 0.00 | 0.00 | 18 | 1002.9 |
| 20260505220028 | 77 | 360 | 2.6 | 0.0 | 0.00 | 0.00 | 0.00 | 18 | 1002.9 |
| 20260505215554 | 77 | 360 | 3.5 | 0.0 | 0.00 | 0.00 | 0.00 | 19 | 1003.0 |
| 20260505215036 | 73 | 360 | 2.6 | 0.0 | 0.00 | 0.00 | 0.00 | 21 | 1003.1 |
| 20260505214520 | 74 | 360 | 1.7 | 0.0 | 0.00 | 0.00 | 0.00 | 20 | 1003.2 |
| 20260505214057 | 76 | 360 | 1.7 | 0.0 | 0.00 | 0.00 | 0.00 | 20 | 1003.2 |
| 20260505213536 | 76 | 360 | 0.9 | 0.0 | 0.00 | 0.00 | 0.00 | 19 | 1003.2 |
| 20260505213015 | 76 | 95 | 0.9 | 0.0 | 0.00 | 0.00 | 0.00 | 20 | 1003.2 |
| 20260505212600 | 75 | 267 | 1.7 | 0.0 | 0.00 | 0.00 | 0.00 | 20 | 1003.5 |
| 20260505212039 | 75 | 16 | 1.7 | 0.0 | 0.00 | 0.00 | 0.00 | 19 | 1003.4 |
| 20260505211520 | 76 | 170 | 1.7 | 0.0 | 0.00 | 0.00 | 0.00 | 20 | 1003.4 |
| 20260505211105 | 76 | 272 | 1.7 | 0.0 | 0.00 | 0.00 | 0.00 | 20 | 1003.5 |
| 20260505210542 | 76 | 111 | 1.7 | 0.0 | 0.00 | 0.00 | 0.00 | 21 | 1003.6 |
| 20260505210022 | 72 | 82 | 1.7 | 0.0 | 0.00 | 0.00 | 0.00 | 23 | 1003.9 |
| 20260505205504 | 73 | 43 | 1.7 | 0.0 | 0.00 | 0.00 | 0.00 | 21 | 1003.8 |
| 20260505205048 | 75 | 105 | 1.7 | 0.0 | 0.00 | 0.00 | 0.00 | 21 | 1003.7 |
| 20260505204526 | 76 | 205 | 0.9 | 0.0 | 0.00 | 0.00 | 0.00 | 20 | 1003.8 |
| 20260505204003 | 76 | 96 | 0.9 | 0.0 | 0.00 | 0.00 | 0.00 | 21 | 1003.7 |
| 20260505203549 | 75 | 91 | 1.7 | 0.0 | 0.00 | 0.00 | 0.00 | 22 | 1003.7 |
| 20260505203029 | 75 | 161 | 2.6 | 0.0 | 0.00 | 0.00 | 0.00 | 23 | 1003.7 |
| 20260505202506 | 73 | 262 | 3.5 | 0.0 | 0.00 | 0.00 | 0.00 | 24 | 1003.8 |
| 20260505202056 | 73 | 93 | 2.6 | 0.0 | 0.00 | 0.00 | 0.00 | 22 | 1003.9 |
| 20260505201533 | 75 | 115 | 1.7 | 0.0 | 0.00 | 0.00 | 0.00 | 22 | 1003.7 |
| 20260505201013 | 73 | 76 | 0.9 | 0.0 | 0.00 | 0.00 | 0.00 | 24 | 1004.0 |
| 20260505200559 | 74 | 96 | 1.7 | 0.0 | 0.00 | 0.00 | 0.00 | 24 | 1004.0 |
| 20260505200042 | 70 | 118 | 2.6 | 0.0 | 0.00 | 0.00 | 0.00 | 27 | 1004.3 |
| 20260505195522 | 70 | 121 | 3.5 | 0.0 | 0.00 | 0.00 | 0.00 | 26 | 1004.1 |
| 20260505195002 | 71 | 78 | 2.6 | 0.0 | 0.00 | 0.00 | 0.00 | 24 | 1004.2 |
| 20260505194548 | 73 | 115 | 2.6 | 0.0 | 0.00 | 0.00 | 0.00 | 24 | 1004.2 |
| 20260505194030 | 71 | 78 | 1.7 | 0.0 | 0.00 | 0.00 | 0.00 | 26 | 1004.4 |
| 20260505193510 | 73 | 92 | 0.9 | 0.0 | 0.00 | 0.00 | 0.00 | 24 | 1004.3 |
| 20260505193102 | 74 | 67 | 1.7 | 0.0 | 0.00 | 0.00 | 0.00 | 24 | 1004.1 |
| 20260505192536 | 70 | 316 | 1.7 | 0.0 | 0.00 | 0.00 | 0.00 | 27 | 1004.4 |
| 20260505192016 | 71 | 109 | 1.7 | 0.0 | 0.00 | 0.00 | 0.00 | 26 | 1004.4 |
| 20260505191502 | 72 | 196 | 1.7 | 0.0 | 0.00 | 0.00 | 0.00 | 26 | 1004.4 |
| 20260505191047 | 72 | 136 | 1.7 | 0.0 | 0.00 | 0.00 | 0.00 | 27 | 1004.4 |